Location: Kapla
(46.2483°N, 15.0094°E)
Time: 18:39:22
(UTC+00:00)

ERBS - Pass Details

Date: 03 March 2021
Orbit: 408 x 412 km, 57.0° (Epoch: 14 April)

Event Time Altitude Azimuth Distance (km) Brightness Sun altitude
Rises 17:20:52 0° 244° (WSW) 2,346 7.5 -6.3°
Reaches altitude 10° 17:22:59 10° 250° (WSW) 1,486 6.5 -6.6°
Maximum altitude 17:26:12 47° 326° (NW) 557 3.1 -7.2°
Drops below altitude 10° 17:29:26 10° 42° (NE) 1,490 4.6 -7.8°
Enters shadow 17:30:34 - 46° (NE) 1,940 5.2 -8.0°
